User: anonymous   Login
Location: Unspecified
(0.0000°N, 0.0000°E)
Time: 09:45:12
(UTC+00:00)
Language:

PLEIADES HR1 - Orbit

View from above orbital plane
View from above orbital plane
View from above satellite
View from above satellite

Ground track
Ground track

The orbit data is extracted from the following two-line orbital elements,

1 38012U 11076F   15090.11895217  .00000452  00000-0  10705-3 0  9995
2 38012 098.1983 165.8960 0001176 082.2726 277.8621 14.58562846174926
Epoch (UTC): 31 March 2015 02:51:17
Eccentricity: 0.0001176
inclination: 98.1983°
perigee height: 697 km
apogee height: 698 km
right ascension of ascending node: 165.8960°
argument of perigee: 82.2726°
revolutions per day: 14.58562846
mean anomaly at epoch: 277.8621°
orbit number at epoch: 17492

The dashed part of the orbit path shows where the satellite is in the earth's shadow,  

DLR